Regional Weather Roundup
Issued by NWS

Current Version | Previous Version | Graphics & Text | Print | Product List | Glossary On
Versions: 1 2 3 4 5 6 7 8 9 10 11 12 13 14 15 16 17 18 19 20 21 22 23 24 25 26 27 28 29 30 31 32 33 34 35 36 37 38 39 40 41 42 43 44 45 46 47 48 49 50
000
ASUS44 KBMX 080310
RWRAL

ALABAMA REGIONAL WEATHER ROUNDUP
NATIONAL WEATHER SERVICE BIRMINGHAM AL
900 PM CST SUN MAR 07 2021

NOTE: "FAIR" INDICATES FEW OR NO CLOUDS BELOW 12,000 FEET
WITH NO SIGNIFICANT WEATHER AND/OR OBSTRUCTIONS TO VISIBILITY.

THE REMARK "TC" DENOTES TEMPERATURE IN DEGREES CELSIUS.

ALZ001>011-014-016>018-020-080400-
NORTH ALABAMA

CITY           SKY/WX    TMP DP  RH WIND       PRES   REMARKS
MUSCLE SHOALS  CLEAR     47  32  56 CALM      30.44R
HUNTSVILLE     CLEAR     44  27  51 CALM      30.44R
DECATUR        CLEAR     40  29  64 CALM      30.46R
HALEYVILLE     FAIR      39  32  76 CALM      30.47R
GADSDEN        CLEAR     39  33  79 SW3       30.46R
$$

ALZ012-013-022-023-030>036-040>044-080400-
WEST CENTRAL ALABAMA

CITY           SKY/WX    TMP DP  RH WIND       PRES   REMARKS
TUSCALOOSA     CLEAR     45  32  60 N3        30.45R
DEMOPOLIS      FAIR      40  32  73 CALM      30.43R
$$

ALZ015-024>026-033>036-041>044-080400-
CENTRAL ALABAMA

CITY           SKY/WX    TMP DP  RH WIND       PRES   REMARKS
BIRMINGHAM     CLEAR     45  28  51 CALM      30.47R
MONTGOMERY     CLEAR     48  26  42 N3        30.43R
SHELBY CO ARPT CLEAR     46  27  47 CALM      30.44R
MAXWELL AFB    CLEAR     45  31  57 CALM      30.41R
GREENVILLE     FAIR      45  30  55 N5        30.41R
SELMA          NOT AVBL
PRATTVILLE     FAIR      42  29  60 CALM      30.42S
BESSEMER       FAIR      52  23  32 N5        30.45R
TALLADEGA      FAIR      41  29  61 CALM      30.45R
PELL CITY      CLEAR     37  28  70 CALM      30.45R
SYLACAUGA      CLOUDY    40  32  73 CALM      30.45R
$$

ALZ019-021-028-029-037-038-045>048-080400-
EAST CENTRAL ALABAMA

CITY           SKY/WX    TMP DP  RH WIND       PRES   REMARKS
ANNISTON       CLEAR     42  31  64 CALM      30.44R
ALEXANDER CITY CLEAR     44  29  55 CALM      30.43R
AUBURN         CLEAR     49  25  39 N6        30.44R
$$

ALZ051>064-080400-
SOUTHWEST ALABAMA

CITY           SKY/WX    TMP DP  RH WIND       PRES   REMARKS
MOBILE         CLEAR     42  30  62 CALM      30.42R
BROOKLEY FIELD CLEAR     45  34  65 W3        30.43R
EVERGREEN      PTCLDY    44  34  67 CALM      30.42R
$$

ALZ049-050-065>069-080400-
SOUTHEAST ALABAMA

CITY           SKY/WX    TMP DP  RH WIND       PRES   REMARKS
DOTHAN         PTCLDY    48  31  51 N3        30.43R
OZARK          CLEAR     49  30  49 N3        30.40R
TROY           CLEAR     44  29  55 CALM      30.42R
EUFAULA        FAIR      44  33  65 CALM      30.42R
$$



USA.gov is the U.S. government's official web portal to all federal, state and local government web resources and services.